This demonstration page uses our WeatherBlox Daily Observations layout. Learn more.

38.89511, -77.03637

Hourly Observations for November 22, 2017

Temp ( °F °C ) Dew Point ( °F °C ) Humidity (%) Winds ( mph kmh ) Pressure ( in mb ) Visibility ( mi km ) Precip ( " mm )
12:05 am 00:05 Clear 50 10 37 3 62 62 SW 6 9 30 1016 10 16.0934 0 0
12:25 am 00:25 Mostly Cloudy 50 10 37 3 62 62 SW 5 7 30 1016 10 16.0934 0 0
12:45 am 00:45 Mostly Cloudy 46 8 37 3 71 71 WSW 3 6 30 1016 10 16.0934 0 0
1:05 am 01:05 Partly Cloudy 45 7 37 3 76 76 Calm 29.97 1015 10 16.0934 0 0
1:25 am 01:25 Mostly Cloudy 46 8 37 3 71 71 Calm 29.97 1015 10 16.0934 0 0
1:45 am 01:45 Mostly Cloudy 43 6 37 3 81 81 Calm 29.97 1015 10 16.0934 0 0
2:05 am 02:05 Partly Cloudy 43 6 36 2 76 76 Calm 29.97 1015 10 16.0934 0 0
2:25 am 02:25 Mostly Cloudy 45 7 37 3 76 76 Calm 29.97 1015 10 16.0934 0 0
2:45 am 02:45 Cloudy 45 7 37 3 76 76 SE 3 6 29.97 1015 10 16.0934 0 0
3:05 am 03:05 Cloudy 45 7 37 3 76 76 SSE 8 13 29.94 1014 10 16.0934 0 0
3:25 am 03:25 Cloudy 46 8 39 4 76 76 W 3 6 29.94 1014 10 16.0934 0 0
3:45 am 03:45 Cloudy 46 8 39 4 76 76 SE 3 6 29.94 1014 10 16.0934 0 0
4:05 am 04:05 Cloudy 46 8 39 4 76 76 Calm 29.94 1014 10 16.0934 0 0
4:25 am 04:25 Cloudy 46 8 39 4 76 76 Calm 29.94 1014 10 16.0934 0 0
4:45 am 04:45 Mostly Cloudy 46 8 37 3 71 71 Calm 29.94 1014 10 16.0934 0 0
5:05 am 05:05 Partly Cloudy 46 8 37 3 71 71 S 3 6 29.94 1014 10 16.0934 0 0
5:25 am 05:25 Clear 45 7 37 3 76 76 SSE 3 6 29.94 1014 10 16.0934 0 0
5:45 am 05:45 Partly Cloudy 43 6 43 6 100 100 S 5 7 29.94 1014 10 16.0934 0 0
6:05 am 06:05 Mostly Cloudy 45 7 43 6 93 93 Calm 29.97 1015 10 16.0934 0 0
6:25 am 06:25 Mostly Cloudy 45 7 39 4 81 81 Calm 29.97 1015 10 16.0934 0 0
6:45 am 06:45 Mostly Cloudy 43 6 43 6 100 100 Calm 29.97 1015 10 16.0934 0 0
6:50 am 06:50 Cloudy 45 7 45 7 100 100 Calm 29.97 1015 10 16.0934 0 0
7:47 am 07:47 Partly Cloudy 54 12 36 2 51 51 NW 10 17 30 1016 10 16.0934 0 0
8:47 am 08:47 Mostly Sunny 55 13 32 0 41 41 NW 12 19 30.03 1017 10 16.0934 0 0
9:49 am 09:49 Partly Cloudy 54 12 32 0 44 44 NW 16 26 30.03 1017 10 16.0934 0 0
10:47 am 10:47 Mostly Cloudy 54 12 30 -1 41 41 NW 21 33 30.06 1018 10 16.0934 0 0
11:47 am 11:47 Mostly Cloudy 52 11 27 -3 38 38 NW 21 33 30.06 1018 10 16.0934 0 0
12:47 pm 12:47 Mostly Cloudy 52 11 27 -3 38 38 NNW 23 37 30.06 1018 10 16.0934 0 0
1:47 pm 13:47 Mostly Cloudy 48 9 25 -4 40 40 NNW 15 24 30.09 1019 10 16.0934 0 0
2:50 pm 14:50 Mostly Cloudy 48 9 25 -4 40 40 NNW 15 24 30.09 1019 10 16.0934 0 0
3:47 pm 15:47 Mostly Cloudy 46 8 23 -5 40 40 NNW 10 17 30.12 1020 10 16.0934 0 0
4:50 pm 16:50 Mostly Cloudy 45 7 21 -6 39 39 NNW 10 17 30.15 1021 10 16.0934 0 0
5:47 pm 17:47 Mostly Cloudy 43 6 21 -6 42 42 NNW 8 13 30.15 1021 10 16.0934 0 0
6:47 pm 18:47 Mostly Cloudy 41 5 21 -6 45 45 NNW 10 17 30.18 1022 10 16.0934 0 0
7:50 pm 19:50 Mostly Clear 41 5 21 -6 45 45 N 9 15 30.18 1022 10 16.0934 0 0
8:47 pm 20:47 Mostly Clear 39 4 21 -6 48 48 N 7 11 30.24 1024 10 16.0934 0 0
9:05 pm 21:05 Clear 37 3 21 -6 52 52 NNW 9 15 30.24 1024 10 16.0934 0 0
9:25 pm 21:25 Clear 37 3 23 -5 56 56 NNW 6 9 30.24 1024 10 16.0934 0 0
9:45 pm 21:45 Clear 36 2 23 -5 60 60 NW 7 11 30.24 1024 10 16.0934 0 0
10:05 pm 22:05 Partly Cloudy 36 2 23 -5 60 60 Calm 30.24 1024 10 16.0934 0 0
10:25 pm 22:25 Mostly Cloudy 37 3 23 -5 56 56 N 5 7 30.24 1024 10 16.0934 0 0
10:45 pm 22:45 Mostly Cloudy 36 2 21 -6 56 56 NNW 6 9 30.24 1024 10 16.0934 0 0
11:05 pm 23:05 Partly Cloudy 36 2 21 -6 56 56 N 3 6 30.24 1024 10 16.0934 0 0
11:25 pm 23:25 Partly Cloudy 34 1 21 -6 60 60 NNE 3 6 30.24 1024 10 16.0934 0 0
11:45 pm 23:45 Mostly Cloudy 34 1 21 -6 60 60 Calm 30.24 1024 10 16.0934 0 0

Powered by AerisWeather